Albany, NY

4:44 AM EST on November 20, 2017 (GMT -0500)
Albany International

Weather History for KALB - April, 2014

Change the Weather History Date:

Sunday, April 13, 2014

  Actual Average Record
Temperature  
Mean Temperature 61 °F 47 °F  
Max Temperature 79 °F 57 °F 87 °F (1977)
Min Temperature 42 °F 37 °F 19 °F (1874)
Degree Days  
Heating Degree Days 4 18  
Month to date heating degree days 238 269  
Since 1 July heating degree days 6502 6142  
Cooling Degree Days 0 0  
Month to date cooling degree days 0 0  
Year to date cooling degree days 0 0  
Growing Degree Days 10 (Base 50)    
Moisture  
Dew Point 44 °F    
Average Humidity 58    
Maximum Humidity 80    
Minimum Humidity 35    
Precipitation  
Precipitation 0.03 in 0.11 in 1.13 in (1987)
Month to date precipitation 0.33 1.41  
Year to date precipitation 8.84 9.41  
Snow  
Snow 0.00 in 0.10 in 5.50 in (1950)
Month to date snowfall T 1.5  
Since 1 July snowfall 71.1 59.4  
Snow Depth 0.00 in    
Sea Level Pressure  
Sea Level Pressure 30.01 in    
Wind  
Wind Speed 11 mph (SSE)    
Max Wind Speed 25 mph    
Max Gust Speed 38 mph    
Visibility 10 miles    
Events Rain , Thunderstorm    
T = Trace of Precipitation, MM = Missing Value Source: NWS Daily Summary

Daily Weather History Graph

Daily Weather History Graph

Search for Another Location

Airport or City:

Trip Planner

Search our weather history database for the weather conditions in past years. The results will help you decide how hot, cold, wet, or windy it might be!

Date:

Astronomy

Apr. 13, 2014 Rise Set
Actual Time 6:17 AM EDT 7:35 PM EDT
Civil Twilight 5:47 AM EDT 8:04 PM EDT
Nautical Twilight 5:12 AM EDT 8:39 PM EDT
Astronomical Twilight 4:35 AM EDT 9:16 PM EDT
Moon 6:08 PM EDT (4/13) 5:16 AM EDT (4/13)
Length of Visible Light 14h 16m
Length of Day
13h 18m
Waxing Gibbous, 97% of the Moon is Illuminated
Apr 13
Waxing Gibbous
Apr 15
Full
Apr 22
Last Quarter
Apr 29
New
May 6
First Quarter

Hourly Weather History & Observations

Time (EDT) Temp. Windchill Dew Point Humidity Pressure Visibility Wind Dir Wind Speed Gust Speed Precip Events Conditions
12:51 AM 48.9 °F - 36.0 °F 61% 30.17 in 10.0 mi East 3.5 mph - N/A   Overcast
1:51 AM 48.0 °F - 36.0 °F 63% 30.16 in 10.0 mi Calm Calm - N/A   Partly Cloudy
2:51 AM 45.0 °F 43.5 °F 35.1 °F 68% 30.15 in 10.0 mi East 3.5 mph - N/A   Mostly Cloudy
3:51 AM 45.0 °F - 34.0 °F 65% 30.14 in 10.0 mi Calm Calm - N/A   Mostly Cloudy
4:51 AM 45.0 °F 43.5 °F 37.0 °F 74% 30.12 in 10.0 mi NW 3.5 mph - N/A   Overcast
5:51 AM 46.0 °F 44.8 °F 36.0 °F 68% 30.11 in 10.0 mi NW 3.5 mph - 0.00 in Rain Light Rain
6:36 AM 46.9 °F - 39.9 °F 77% 30.08 in 8.0 mi SE 5.8 mph - 0.01 in Rain , Thunderstorm Light Thunderstorms and Rain
6:51 AM 48.2 °F - 39.2 °F 71% 30.08 in 10.0 mi NNW 3.5 mph - N/A Rain , Thunderstorm Light Thunderstorms and Rain
6:59 AM 51.1 °F - 37.0 °F 59% 30.07 in 10.0 mi Calm Calm - 0.00 in   Overcast
7:51 AM 48.0 °F - 41.0 °F 77% 30.09 in 10.0 mi NNE 3.5 mph - 0.00 in   Overcast
8:51 AM 48.9 °F - 43.0 °F 80% 30.10 in 10.0 mi North 4.6 mph - 0.00 in   Mostly Cloudy
9:51 AM 59.0 °F - 39.9 °F 49% 30.07 in 10.0 mi South 13.8 mph 21.9 mph N/A   Scattered Clouds
10:51 AM 63.0 °F - 48.0 °F 58% 30.04 in 10.0 mi South 19.6 mph 33.4 mph N/A   Scattered Clouds
11:51 AM 66.0 °F - 48.9 °F 54% 30.03 in 10.0 mi SSE 17.3 mph 25.3 mph N/A   Scattered Clouds
12:51 PM 69.1 °F - 50.0 °F 51% 30.00 in 10.0 mi SSE 19.6 mph 29.9 mph N/A   Scattered Clouds
1:51 PM 71.1 °F - 50.0 °F 47% 29.97 in 10.0 mi SSE 17.3 mph 27.6 mph N/A   Partly Cloudy
2:51 PM 75.0 °F - 51.1 °F 43% 29.94 in 10.0 mi South 15.0 mph 28.8 mph N/A   Scattered Clouds
3:51 PM 75.9 °F - 50.0 °F 40% 29.90 in 10.0 mi South 15.0 mph 29.9 mph N/A   Mostly Cloudy
4:51 PM 77.0 °F - 50.0 °F 39% 29.87 in 10.0 mi SSE 16.1 mph 32.2 mph N/A   Mostly Cloudy
5:51 PM 79.0 °F - 48.9 °F 35% 29.87 in 10.0 mi South 18.4 mph 26.5 mph N/A   Mostly Cloudy
6:51 PM 77.0 °F - 48.9 °F 37% 29.87 in 10.0 mi South 17.3 mph 27.6 mph N/A   Mostly Cloudy
7:51 PM 75.0 °F - 50.0 °F 41% 29.87 in 10.0 mi South 15.0 mph 23.0 mph N/A   Mostly Cloudy
8:51 PM 73.9 °F - 48.9 °F 41% 29.89 in 10.0 mi South 12.7 mph 24.2 mph N/A   Mostly Cloudy
9:51 PM 72.0 °F - 48.9 °F 44% 29.89 in 10.0 mi South 15.0 mph 25.3 mph N/A   Mostly Cloudy
10:51 PM 70.0 °F - 50.0 °F 49% 29.89 in 10.0 mi South 13.8 mph 23.0 mph N/A   Mostly Cloudy
11:51 PM 69.1 °F - 50.0 °F 51% 29.89 in 10.0 mi South 12.7 mph - N/A   Mostly Cloudy